THORAD AGENA D DEB, 5150

Orbit data source: Space-Track

THORAD AGENA D DEB, 5150 is space debris in SSO originally from a launch on Wed, 08 Apr 1970 UTC launched from the Air Force Western Test Range (AFWTR). Debris objects in space refer to the collection of defunct objects orbiting the Earth. Examples of debris include non-operational satellites, rocket bodies, and fragments generated from explosions, collisions, or faulty payload assembly.

Loading next visibility...
Identifier
5150, 1970-025JT
Orbit
SSO
Country
Flag of USUS
Related business
Manufacturer
Unknown
Mission
Spacecraft
Bus & Motor
Unknown
Mass
Unknown
Launch date (UTC)
1970-04-08 (56 years ago)
Launch vehicle
Unknown
Launch site
Air Force Western Test Range (AFWTR)
Object type
Payload
Rocket body
Debris
Shape & HBR
Unknown shape, 0.1 m
Radar Cross Section
Medium (>0.1 m² and <1 m²)

Expand to show TLE details & history
Last TLE update: 1 day ago

TLE from 1 day ago
0 THORAD AGENA D DEB
1 05150U 70025JT  26255.21617730  .00001072  00000-0  80358-3 0  9999
2 05150  99.4669 342.8121 0087985 220.0482 139.4170 13.95091291822357
Epoch: 2026-09-12T05:11Z
TLE epoch observation values (Epoch: 2026-09-12T05:11:17.718Z)
Latitude
0.00005°
Longitude
-86.2401°
Altitude
962.65 km
Speed
7.346 km/s
True Right ascension
22h 51m 14s
True Declination
0° 00' 00"
Sunlit
Object was in full shadow at epoch
Visualization orbit readout
Latitude
Unknown
Longitude
Unknown
Altitude
Unknown
Speed
Unknown
Apparent Right ascension
Unknown
Apparent Declination
Unknown
Sunlit
N/A
Visualization observer readout
Local Sidereal Time
23:52:13
Azimuth
Unknown
Elevation
Unknown
Doppler factor
Unknown
Orbital elements
Apogee altitude
972.18 km
Perigee altitude
843.964 km
Semi-major axis
7,286.209 km
Eccentricity
0.0088
Inclination
99.4669°
RAAN
342.8121°
Arg. of periapsis
220.0482°
True anomaly
140.06746°
Mean anomaly
139.417°
Eccentric anomaly
139.74277°
Mean motion
3.48972 °/min
Orbital period
103.16 mins
BSTAR
0.00080358
Loading maneuver chart data...
Computing Atmospheric mass density...

Documentation

Showing up to 5 results
|